Weather History for Ann Arbor, MI

Change the Weather History Date:

Tuesday, January 14, 2014

  Actual Average Record
Temperature  
Mean Temperature 28 °F -  
Max Temperature 36 °F 27 °F 46 °F (2002)
Min Temperature 19 °F 12 °F -9 °F (2009)
Degree Days  
Heating Degree Days 38    
Moisture  
Dew Point 25 °F    
Average Humidity 77    
Maximum Humidity 93    
Minimum Humidity 61    
Precipitation  
Precipitation 0.00 in - - ()
Sea Level Pressure  
Sea Level Pressure 29.74 in    
Wind  
Wind Speed 9 mph (WSW)    
Max Wind Speed 26 mph    
Max Gust Speed 39 mph    
Visibility 8 miles    
Events Snow    
Averages and records for this station are not official NWS values.
T = Trace of Precipitation, MM = Missing Value Source: NWS Daily Summary

Daily Weather History Graph

Daily Weather History Graph

Search for Another Location

Airport:

Trip Planner

Search our weather history database for the weather conditions in past years. The results will help you decide how hot, cold, wet, or windy it might be!

Date:

Astronomy

Jan. 14, 2014 Rise Set
Actual Time 8:01 AM EST 5:26 PM EST
Civil Twilight 7:30 AM EST 5:57 PM EST
Nautical Twilight 6:55 AM EST 6:32 PM EST
Astronomical Twilight 6:22 AM EST 7:06 PM EST
Moon 4:31 PM EST (1/14) 6:34 AM EST (1/14)
Length of Visible Light 10h 27m
Length of Day
9h 25m
Waxing Gibbous, 98% of the Moon is Illuminated
Jan 14
Waxing Gibbous
Jan 15
Full
Jan 24
Last Quarter
Jan 30
New
Feb 6
First Quarter

Hourly Weather History & Observations

Time (EST) Temp. Windchill Dew Point Humidity Pressure Visibility Wind Dir Wind Speed Gust Speed Precip Events Conditions
12:53 AM 36.0 °F 29.0 °F 30.9 °F 82% 29.69 in 10.0 mi WNW 9.2 mph - N/A   Mostly Cloudy
1:53 AM 35.1 °F 27.4 °F 28.0 °F 76% 29.70 in 10.0 mi WNW 10.4 mph - N/A   Overcast
2:53 AM 34.0 °F 23.8 °F 26.1 °F 73% 29.73 in 10.0 mi WNW 16.1 mph 24.2 mph N/A   Mostly Cloudy
3:03 AM 33.8 °F 24.8 °F 24.8 °F 70% 29.71 in 10.0 mi WNW 12.7 mph - N/A   Scattered Clouds
3:53 AM 32.0 °F 24.8 °F 24.1 °F 73% 29.74 in 10.0 mi NW 8.1 mph - N/A   Clear
4:53 AM 28.9 °F 23.9 °F 24.1 °F 82% 29.75 in 10.0 mi WNW 4.6 mph - N/A   Clear
5:53 AM 23.0 °F - 19.0 °F 85% 29.77 in 8.0 mi Calm Calm - N/A   Clear
6:53 AM 21.9 °F - 19.9 °F 92% 29.78 in 4.0 mi Calm Calm - N/A   Clear
7:44 AM 21.2 °F - 19.4 °F 93% 29.76 in 2.5 mi Calm Calm - N/A   Clear
7:53 AM 21.0 °F - 19.0 °F 92% 29.79 in 4.0 mi Calm Calm - N/A   Clear
8:53 AM 19.9 °F - 18.0 °F 92% 29.80 in 3.0 mi Calm Calm - N/A   Clear
9:53 AM 28.0 °F - 26.1 °F 92% 29.81 in 5.0 mi Calm Calm - N/A   Clear
10:53 AM 33.1 °F 28.7 °F 27.0 °F 78% 29.80 in 7.0 mi South 4.6 mph - N/A   Clear
11:53 AM 34.0 °F 26.0 °F 27.0 °F 75% 29.78 in 8.0 mi South 10.4 mph - N/A   Clear
12:53 PM 34.0 °F 27.2 °F 27.0 °F 75% 29.76 in 7.0 mi SW 8.1 mph - N/A   Clear
1:53 PM 35.1 °F 26.9 °F 27.0 °F 72% 29.74 in 6.0 mi South 11.5 mph - N/A   Haze
2:53 PM 35.1 °F 27.4 °F 28.9 °F 78% 29.73 in 5.0 mi South 10.4 mph - N/A   Haze
3:53 PM 36.0 °F 30.3 °F 28.9 °F 76% 29.71 in 5.0 mi South 6.9 mph - N/A   Haze
4:53 PM 36.0 °F 32.1 °F 27.0 °F 70% 29.70 in 8.0 mi SSW 4.6 mph - N/A   Overcast
5:53 PM 36.0 °F 27.1 °F 26.1 °F 67% 29.72 in 9.0 mi SSW 13.8 mph 17.3 mph N/A   Overcast
6:28 PM 35.6 °F 27.5 °F 30.2 °F 81% 29.69 in 4.0 mi SSW 11.5 mph - 0.00 in Snow Light Snow
6:53 PM 34.0 °F 26.6 °F 30.9 °F 89% 29.71 in 5.0 mi SSW 9.2 mph - 0.00 in Snow Light Snow
7:53 PM 35.1 °F 26.9 °F 30.9 °F 85% 29.72 in 10.0 mi SW 11.5 mph - 0.00 in   Overcast
8:42 PM 35.6 °F 23.2 °F 26.6 °F 70% 29.70 in 10.0 mi West 26.5 mph 33.4 mph N/A   Overcast
8:53 PM 35.1 °F 24.1 °F 24.1 °F 64% 29.73 in 10.0 mi WSW 19.6 mph 25.3 mph N/A   Overcast
9:53 PM 32.0 °F 20.5 °F 23.0 °F 69% 29.75 in 10.0 mi West 18.4 mph 26.5 mph N/A   Overcast
10:10 PM 30.2 °F 17.4 °F 19.4 °F 64% 29.73 in 10.0 mi West 20.7 mph 34.5 mph N/A   Overcast
10:53 PM 30.0 °F 16.6 °F 18.0 °F 61% 29.75 in 10.0 mi WSW 23.0 mph 39.1 mph N/A   Overcast
11:53 PM 30.0 °F 16.0 °F 19.0 °F 64% 29.75 in 10.0 mi WSW 25.3 mph 33.4 mph N/A   Overcast